CFG9MA EDDL-LGKO

Flight info

Callsign CFG9MA
Flight time 2h 54m
Altitude 33000
Route DODEN1T/23L DODEN Y853 BOMBI DCT DETEV DCT DINKU DCT BESNI DCT GOMIG DCT BEDOX DCT GUBOK/N0449F350 DCT VEBAR DCT VABEK UL603 OLOTA DCT RUGAS DCT GIKAS DCT MES UN139 LURUS L995 KOPAR
Aircraft A321/M-SDE3GHIJ1LORVWXYZ/LB1D1

Departure

Time 2026-05-05 12:31
Airport Düsseldorf Airport (EDDL)

Arrival

Time 2026-05-05 15:25
Airport Kos International Airport "Ippokratis" (LGKO)
Time Latitude Longitude Altitude Speed Heading
2026-05-05 11:53 51.28015 6.76420 126 ft 0 kts 208°
2026-05-05 12:19 51.28017 6.76422 126 ft 3 kts 208°
2026-05-05 12:20 51.28041 6.76440 128 ft 4 kts 196°
2026-05-05 12:20 51.28065 6.76445 126 ft 4 kts 159°
2026-05-05 12:20 51.28085 6.76427 126 ft 4 kts 146°
2026-05-05 12:20 51.28107 6.76402 126 ft 4 kts 139°
2026-05-05 12:21 51.28125 6.76371 129 ft 4 kts 122°
2026-05-05 12:21 51.28137 6.76336 126 ft 4 kts 116°
2026-05-05 12:21 51.28148 6.76297 125 ft 4 kts 103°
2026-05-05 12:21 51.28149 6.76258 127 ft 4 kts 62°
2026-05-05 12:22 51.28137 6.76226 125 ft 4 kts 55°
2026-05-05 12:22 51.28121 6.76192 126 ft 3 kts 52°
2026-05-05 12:22 51.28118 6.76186 130 ft 1 kts 53°
2026-05-05 12:24 51.28122 6.76195 130 ft 5 kts 53°
2026-05-05 12:25 51.28146 6.76241 128 ft 5 kts 41°
2026-05-05 12:25 51.28196 6.76235 127 ft 10 kts 341°
2026-05-05 12:25 51.28259 6.76292 123 ft 13 kts 49°
2026-05-05 12:25 51.28331 6.76443 123 ft 21 kts 52°
2026-05-05 12:26 51.28421 6.76632 123 ft 21 kts 52°
2026-05-05 12:26 51.28505 6.76808 122 ft 19 kts 53°
2026-05-05 12:26 51.28595 6.76997 127 ft 22 kts 52°
2026-05-05 12:26 51.28685 6.77186 128 ft 22 kts 52°
2026-05-05 12:27 51.28785 6.77397 124 ft 24 kts 53°
2026-05-05 12:27 51.28886 6.77608 128 ft 23 kts 52°
2026-05-05 12:27 51.28981 6.77807 128 ft 22 kts 52°
2026-05-05 12:27 51.29080 6.78016 129 ft 25 kts 53°
2026-05-05 12:28 51.29175 6.78218 137 ft 21 kts 52°
2026-05-05 12:28 51.29253 6.78377 143 ft 17 kts 53°
2026-05-05 12:28 51.29333 6.78535 150 ft 18 kts 39°
2026-05-05 12:28 51.29436 6.78573 153 ft 14 kts 357°
2026-05-05 12:29 51.29528 6.78558 154 ft 10 kts 354°
2026-05-05 12:29 51.29543 6.78524 154 ft 4 kts 257°
2026-05-05 12:29 51.29526 6.78485 152 ft 0 kts 232°
2026-05-05 12:30 51.29498 6.78426 150 ft 29 kts 232°
2026-05-05 12:30 51.29212 6.77819 137 ft 104 kts 232°
2026-05-05 12:31 51.28649 6.76638 132 ft 160 kts 232°
2026-05-05 12:31 51.27914 6.75056 393 ft 182 kts 237°
2026-05-05 12:31 51.27424 6.73986 924 ft 179 kts 237°
2026-05-05 12:31 51.26668 6.72355 1410 ft 190 kts 236°
2026-05-05 12:32 51.25831 6.70547 1583 ft 210 kts 235°
2026-05-05 12:32 51.24911 6.68584 1746 ft 231 kts 234°
2026-05-05 12:32 51.23895 6.66415 1937 ft 257 kts 234°
2026-05-05 12:32 51.22647 6.64321 2545 ft 264 kts 211°
2026-05-05 12:33 51.20897 6.63549 3318 ft 264 kts 178°
2026-05-05 12:33 51.19067 6.63785 4115 ft 264 kts 174°
2026-05-05 12:33 51.17234 6.64094 4903 ft 265 kts 174°
2026-05-05 12:33 51.15436 6.64709 5650 ft 267 kts 156°
2026-05-05 12:34 51.13951 6.66469 6369 ft 271 kts 129°
2026-05-05 12:34 51.13140 6.69181 7021 ft 276 kts 101°
2026-05-05 12:34 51.13113 6.72263 7678 ft 281 kts 89°
2026-05-05 12:34 51.13222 6.75381 8357 ft 283 kts 93°
2026-05-05 12:35 51.12863 6.78432 8991 ft 281 kts 116°
2026-05-05 12:35 51.11898 6.81129 9651 ft 281 kts 124°
2026-05-05 12:35 51.10850 6.83788 10169 ft 290 kts 124°
2026-05-05 12:35 51.09735 6.86605 10278 ft 310 kts 124°
2026-05-05 12:36 51.08565 6.89562 10410 ft 330 kts 124°
2026-05-05 12:36 51.07292 6.92780 10555 ft 349 kts 124°
2026-05-05 12:36 51.05998 6.96055 10864 ft 359 kts 123°
2026-05-05 12:36 51.04665 6.99434 11383 ft 363 kts 124°
2026-05-05 12:37 51.03296 7.02900 11959 ft 367 kts 124°
2026-05-05 12:37 51.01931 7.06343 12508 ft 371 kts 124°
2026-05-05 12:37 51.00548 7.09825 13096 ft 375 kts 123°
2026-05-05 12:37 50.99149 7.13344 13638 ft 378 kts 124°
2026-05-05 12:38 50.97775 7.16791 14140 ft 381 kts 124°
2026-05-05 12:38 50.96315 7.20455 14649 ft 384 kts 124°
2026-05-05 12:38 50.94887 7.24041 15139 ft 386 kts 124°
2026-05-05 12:38 50.93442 7.27662 15630 ft 389 kts 124°
2026-05-05 12:39 50.91991 7.31291 16108 ft 392 kts 124°
2026-05-05 12:39 50.90524 7.34948 16587 ft 394 kts 124°
2026-05-05 12:39 50.89046 7.38625 17048 ft 397 kts 124°
2026-05-05 12:39 50.87554 7.42326 17518 ft 400 kts 124°
2026-05-05 12:40 50.86053 7.46047 17980 ft 403 kts 124°
2026-05-05 12:40 50.84537 7.49795 18395 ft 406 kts 124°
2026-05-05 12:40 50.83011 7.53566 18792 ft 408 kts 124°
2026-05-05 12:40 50.81480 7.57351 19200 ft 410 kts 124°
2026-05-05 12:41 50.79941 7.61155 19615 ft 412 kts 124°
2026-05-05 12:41 50.78394 7.64972 20016 ft 414 kts 124°
2026-05-05 12:41 50.76836 7.68810 20413 ft 416 kts 124°
2026-05-05 12:41 50.75269 7.72662 20795 ft 418 kts 124°
2026-05-05 12:42 50.73690 7.76532 21200 ft 420 kts 124°
2026-05-05 12:42 50.72107 7.80408 21587 ft 422 kts 125°
2026-05-05 12:42 50.70511 7.84309 21983 ft 424 kts 125°
2026-05-05 12:42 50.68907 7.88222 22362 ft 426 kts 125°
2026-05-05 12:43 50.67294 7.92154 22754 ft 428 kts 125°
2026-05-05 12:43 50.65672 7.96110 23126 ft 431 kts 125°
2026-05-05 12:43 50.64040 8.00084 23482 ft 433 kts 125°
2026-05-05 12:43 50.62399 8.04065 23788 ft 435 kts 125°
2026-05-05 12:44 50.60745 8.08061 24088 ft 436 kts 126°
2026-05-05 12:44 50.58907 8.11855 24378 ft 437 kts 132°
2026-05-05 12:44 50.56969 8.15549 24682 ft 438 kts 132°
2026-05-05 12:44 50.55024 8.19254 24988 ft 440 kts 132°
2026-05-05 12:45 50.53070 8.22977 25278 ft 442 kts 132°
2026-05-05 12:45 50.51114 8.26702 25557 ft 444 kts 132°
2026-05-05 12:45 50.49143 8.30446 25842 ft 445 kts 132°
2026-05-05 12:45 50.47161 8.34200 26121 ft 447 kts 133°
2026-05-05 12:46 50.45172 8.37960 26402 ft 448 kts 133°
2026-05-05 12:46 50.43178 8.41733 26674 ft 450 kts 133°
2026-05-05 12:46 50.41175 8.45520 26967 ft 452 kts 133°
2026-05-05 12:46 50.39162 8.49315 27238 ft 453 kts 133°
2026-05-05 12:47 50.37142 8.53115 27515 ft 455 kts 133°
2026-05-05 12:47 50.35232 8.56698 27787 ft 456 kts 133°
2026-05-05 12:47 50.33204 8.60505 28167 ft 454 kts 133°
2026-05-05 12:47 50.31184 8.64300 28537 ft 453 kts 134°
2026-05-05 12:48 50.29171 8.68075 28925 ft 452 kts 134°
2026-05-05 12:48 50.27157 8.71841 29278 ft 451 kts 134°
2026-05-05 12:48 50.25145 8.75595 29639 ft 450 kts 134°
2026-05-05 12:48 50.23137 8.79337 29975 ft 449 kts 134°
2026-05-05 12:49 50.21137 8.83063 30280 ft 448 kts 134°
2026-05-05 12:49 50.19137 8.86783 30591 ft 447 kts 135°
2026-05-05 12:49 50.17144 8.90487 30896 ft 446 kts 135°
2026-05-05 12:49 50.15150 8.94185 31216 ft 444 kts 135°
2026-05-05 12:50 50.13163 8.97867 31528 ft 443 kts 135°
2026-05-05 12:50 50.11178 9.01540 31834 ft 443 kts 135°
2026-05-05 12:50 50.09196 9.05198 32147 ft 442 kts 135°
2026-05-05 12:50 50.07212 9.08853 32465 ft 441 kts 135°
2026-05-05 12:51 50.05236 9.12486 32756 ft 440 kts 136°
2026-05-05 12:51 50.03260 9.16107 32832 ft 438 kts 136°
2026-05-05 12:51 49.99332 9.23289 32835 ft 435 kts 136°
2026-05-05 12:52 49.95424 9.30435 32844 ft 434 kts 136°
2026-05-05 12:52 49.91520 9.37579 32827 ft 433 kts 136°
2026-05-05 12:53 49.87611 9.44691 32834 ft 433 kts 136°
2026-05-05 12:53 49.83695 9.51779 32822 ft 433 kts 136°
2026-05-05 12:54 49.77336 9.61502 32826 ft 428 kts 142°
2026-05-05 12:55 49.73001 9.67793 32822 ft 427 kts 142°
2026-05-05 12:55 49.68659 9.74066 32817 ft 427 kts 142°
2026-05-05 12:56 49.64326 9.80309 32816 ft 426 kts 142°
2026-05-05 12:56 49.59992 9.86553 32821 ft 426 kts 142°
2026-05-05 12:57 49.55667 9.92776 32821 ft 425 kts 142°
2026-05-05 12:57 49.51339 9.98971 32820 ft 425 kts 142°
2026-05-05 12:58 49.47005 10.05156 32819 ft 425 kts 142°
2026-05-05 12:58 49.42644 10.11364 32820 ft 425 kts 142°
2026-05-05 12:59 49.38311 10.17520 32821 ft 425 kts 142°
2026-05-05 12:59 49.33970 10.23671 32792 ft 425 kts 142°
2026-05-05 13:00 49.27452 10.32886 32798 ft 425 kts 142°
2026-05-05 13:01 49.18820 10.45310 32822 ft 427 kts 140°
2026-05-05 13:01 49.14580 10.51701 32824 ft 428 kts 140°
2026-05-05 13:02 49.10321 10.58066 32827 ft 429 kts 140°
2026-05-05 13:02 49.06041 10.64392 32825 ft 429 kts 141°
2026-05-05 13:03 49.01750 10.70716 32819 ft 429 kts 141°
2026-05-05 13:03 48.97448 10.77035 32820 ft 430 kts 141°
2026-05-05 13:04 48.93140 10.83347 32817 ft 430 kts 141°
2026-05-05 13:04 48.88826 10.89659 32813 ft 431 kts 141°
2026-05-05 13:05 48.84504 10.95970 32806 ft 431 kts 141°
2026-05-05 13:05 48.80187 11.02255 32805 ft 430 kts 141°
2026-05-05 13:06 48.75866 11.08532 32799 ft 430 kts 141°
2026-05-05 13:06 48.71543 11.14794 32798 ft 430 kts 141°
2026-05-05 13:07 48.67215 11.21035 32797 ft 429 kts 141°
2026-05-05 13:07 48.63402 11.28047 32794 ft 439 kts 124°
2026-05-05 13:08 48.61065 11.34891 32794 ft 441 kts 122°
2026-05-05 13:08 48.58249 11.43128 32790 ft 441 kts 122°
2026-05-05 13:09 48.55412 11.51350 32788 ft 442 kts 122°
2026-05-05 13:09 48.52577 11.59576 32786 ft 442 kts 122°
2026-05-05 13:10 48.49734 11.67802 32789 ft 442 kts 122°
2026-05-05 13:10 48.46893 11.76020 32788 ft 442 kts 122°
2026-05-05 13:11 48.44046 11.84225 32791 ft 442 kts 122°
2026-05-05 13:11 48.41187 11.92416 32786 ft 442 kts 122°
2026-05-05 13:12 48.38327 12.00611 32785 ft 442 kts 122°
2026-05-05 13:12 48.35460 12.08798 32777 ft 442 kts 122°
2026-05-05 13:13 48.32578 12.16974 32767 ft 443 kts 122°
2026-05-05 13:13 48.29688 12.25150 32762 ft 444 kts 122°
2026-05-05 13:14 48.26792 12.33338 32751 ft 445 kts 122°
2026-05-05 13:14 48.23862 12.41591 32756 ft 446 kts 122°
2026-05-05 13:15 48.20940 12.49793 32756 ft 447 kts 122°
2026-05-05 13:15 48.18006 12.58009 32756 ft 448 kts 122°
2026-05-05 13:16 48.15059 12.66241 32757 ft 448 kts 122°
2026-05-05 13:16 48.11483 12.73747 32761 ft 442 kts 134°
2026-05-05 13:17 48.07523 12.80708 32762 ft 442 kts 134°
2026-05-05 13:17 48.03525 12.87783 32759 ft 443 kts 134°
2026-05-05 13:18 47.99542 12.94805 32764 ft 443 kts 134°
2026-05-05 13:18 47.95541 13.01811 32775 ft 444 kts 134°
2026-05-05 13:19 47.91532 13.08822 32766 ft 444 kts 134°
2026-05-05 13:19 47.87524 13.15827 32767 ft 444 kts 134°
2026-05-05 13:20 47.83509 13.22823 32769 ft 445 kts 134°
2026-05-05 13:20 47.79481 13.29818 32767 ft 445 kts 134°
2026-05-05 13:21 47.75442 13.36806 32768 ft 446 kts 134°
2026-05-05 13:21 47.71398 13.43781 32771 ft 446 kts 134°
2026-05-05 13:22 47.67344 13.50756 32781 ft 446 kts 134°
2026-05-05 13:22 47.63285 13.57731 32785 ft 446 kts 133°
2026-05-05 13:23 47.59231 13.64694 32787 ft 446 kts 134°
2026-05-05 13:23 47.55165 13.71648 32798 ft 446 kts 134°
2026-05-05 13:24 47.51094 13.78591 32805 ft 447 kts 134°
2026-05-05 13:24 47.47017 13.85521 32818 ft 447 kts 134°
2026-05-05 13:25 47.42939 13.92442 32830 ft 447 kts 134°
2026-05-05 13:25 47.38857 13.99351 32846 ft 446 kts 134°
2026-05-05 13:26 47.34772 14.06238 32853 ft 446 kts 134°
2026-05-05 13:26 47.30681 14.13114 32865 ft 446 kts 134°
2026-05-05 13:27 47.26576 14.19989 33248 ft 447 kts 134°
2026-05-05 13:27 47.24526 14.23422 33545 ft 446 kts 134°
2026-05-05 13:27 47.22481 14.26851 33884 ft 445 kts 134°
2026-05-05 13:28 47.20439 14.30273 34167 ft 444 kts 134°
2026-05-05 13:28 47.18396 14.33687 34401 ft 445 kts 135°
2026-05-05 13:28 47.16350 14.37098 34625 ft 445 kts 135°
2026-05-05 13:28 47.14301 14.40509 34826 ft 446 kts 135°
2026-05-05 13:29 47.10176 14.47354 34915 ft 448 kts 135°
2026-05-05 13:29 47.06039 14.54208 34911 ft 449 kts 134°
2026-05-05 13:30 47.01892 14.61066 34915 ft 450 kts 135°
2026-05-05 13:30 46.97734 14.67930 34912 ft 451 kts 134°
2026-05-05 13:31 46.93567 14.74794 34918 ft 451 kts 135°
2026-05-05 13:31 46.89384 14.81650 34911 ft 452 kts 135°
2026-05-05 13:32 46.85193 14.88505 34913 ft 452 kts 135°
2026-05-05 13:32 46.81004 14.95351 34907 ft 452 kts 135°
2026-05-05 13:33 46.76843 15.02128 34875 ft 441 kts 135°
2026-05-05 13:33 46.72721 15.08823 34909 ft 448 kts 135°
2026-05-05 13:34 46.68529 15.15607 34920 ft 451 kts 135°
2026-05-05 13:34 46.64334 15.22398 34921 ft 451 kts 135°
2026-05-05 13:35 46.60129 15.29186 34939 ft 452 kts 135°
2026-05-05 13:35 46.55920 15.35956 34947 ft 451 kts 135°
2026-05-05 13:36 46.51704 15.42714 34957 ft 451 kts 135°
2026-05-05 13:36 46.47484 15.49473 34960 ft 452 kts 135°
2026-05-05 13:37 46.43256 15.56216 34968 ft 452 kts 135°
2026-05-05 13:37 46.39017 15.62957 34965 ft 452 kts 136°
2026-05-05 13:38 46.34775 15.69690 34963 ft 453 kts 135°
2026-05-05 13:38 46.30531 15.76420 34964 ft 453 kts 136°
2026-05-05 13:39 46.26279 15.83142 34948 ft 453 kts 135°
2026-05-05 13:39 46.22152 15.90048 34955 ft 455 kts 132°
2026-05-05 13:40 46.18147 15.97119 34967 ft 455 kts 132°
2026-05-05 13:40 46.14113 16.04169 34968 ft 455 kts 133°
2026-05-05 13:41 46.10037 16.11164 34969 ft 455 kts 133°
2026-05-05 13:41 46.05949 16.18125 34976 ft 455 kts 133°
2026-05-05 13:42 46.01859 16.25087 34979 ft 455 kts 133°
2026-05-05 13:42 45.97769 16.32044 34984 ft 455 kts 133°
2026-05-05 13:43 45.93676 16.38984 34984 ft 455 kts 133°
2026-05-05 13:43 45.89582 16.45913 34977 ft 455 kts 133°
2026-05-05 13:44 45.85489 16.52833 34980 ft 455 kts 133°
2026-05-05 13:44 45.81392 16.59738 34970 ft 454 kts 133°
2026-05-05 13:45 45.77290 16.66628 34962 ft 454 kts 133°
2026-05-05 13:45 45.73181 16.73512 34956 ft 455 kts 133°
2026-05-05 13:46 45.69729 16.79269 34955 ft 455 kts 133°
2026-05-05 13:46 45.65607 16.86133 34951 ft 455 kts 133°
2026-05-05 13:47 45.61485 16.93003 34955 ft 455 kts 133°
2026-05-05 13:47 45.57359 16.99857 34948 ft 455 kts 133°
2026-05-05 13:48 45.53219 17.06706 34953 ft 456 kts 133°
2026-05-05 13:48 45.49073 17.13549 34954 ft 457 kts 133°
2026-05-05 13:49 45.44916 17.20398 34955 ft 457 kts 133°
2026-05-05 13:49 45.40757 17.27251 34938 ft 458 kts 133°
2026-05-05 13:50 45.36582 17.34100 34943 ft 458 kts 133°
2026-05-05 13:50 45.32393 17.40940 34948 ft 459 kts 133°
2026-05-05 13:51 45.28192 17.47785 34942 ft 460 kts 133°
2026-05-05 13:51 45.23981 17.54632 34940 ft 461 kts 133°
2026-05-05 13:52 45.19765 17.61481 34937 ft 461 kts 133°
2026-05-05 13:52 45.15540 17.68332 34940 ft 462 kts 133°
2026-05-05 13:53 45.11302 17.75178 34933 ft 462 kts 133°
2026-05-05 13:53 45.07052 17.82014 34937 ft 463 kts 134°
2026-05-05 13:54 45.02775 17.88816 34944 ft 463 kts 135°
2026-05-05 13:54 44.98353 17.95417 34936 ft 462 kts 136°
2026-05-05 13:55 44.93865 18.01929 34943 ft 463 kts 137°
2026-05-05 13:55 44.89395 18.08469 34939 ft 463 kts 136°
2026-05-05 13:56 44.84942 18.15040 34936 ft 464 kts 136°
2026-05-05 13:56 44.80483 18.21619 34935 ft 464 kts 136°
2026-05-05 13:57 44.76013 18.28180 34935 ft 465 kts 136°
2026-05-05 13:57 44.71533 18.34734 34935 ft 465 kts 136°
2026-05-05 13:58 44.67035 18.41300 34936 ft 466 kts 136°
2026-05-05 13:58 44.62528 18.47861 34944 ft 467 kts 136°
2026-05-05 13:59 44.55757 18.57709 34949 ft 468 kts 136°
2026-05-05 14:00 44.48954 18.67536 34952 ft 469 kts 137°
2026-05-05 14:00 44.44404 18.74087 34953 ft 469 kts 136°
2026-05-05 14:01 44.39861 18.80649 34953 ft 470 kts 136°
2026-05-05 14:01 44.35301 18.87193 34951 ft 470 kts 136°
2026-05-05 14:02 44.30726 18.93729 34952 ft 471 kts 136°
2026-05-05 14:02 44.26146 19.00268 34952 ft 471 kts 136°
2026-05-05 14:03 44.21560 19.06814 34954 ft 472 kts 136°
2026-05-05 14:03 44.16953 19.13350 34950 ft 473 kts 136°
2026-05-05 14:04 44.12329 19.19884 34955 ft 474 kts 137°
2026-05-05 14:04 44.07556 19.26192 34963 ft 474 kts 139°
2026-05-05 14:05 44.02685 19.32376 34963 ft 474 kts 139°
2026-05-05 14:05 43.97832 19.38582 34968 ft 475 kts 139°
2026-05-05 14:06 43.93005 19.44844 34972 ft 475 kts 138°
2026-05-05 14:06 43.88182 19.51108 34976 ft 475 kts 139°
2026-05-05 14:07 43.83339 19.57351 34980 ft 475 kts 139°
2026-05-05 14:07 43.78488 19.63565 34978 ft 475 kts 139°
2026-05-05 14:08 43.73634 19.69780 34980 ft 476 kts 139°
2026-05-05 14:08 43.68782 19.76005 34974 ft 476 kts 139°
2026-05-05 14:09 43.63920 19.82219 34979 ft 476 kts 139°
2026-05-05 14:09 43.59044 19.88425 34976 ft 477 kts 139°
2026-05-05 14:10 43.54166 19.94621 34977 ft 477 kts 139°
2026-05-05 14:10 43.49279 20.00818 34982 ft 478 kts 139°
2026-05-05 14:11 43.44381 20.07005 34984 ft 478 kts 139°
2026-05-05 14:11 43.39471 20.13200 34988 ft 479 kts 139°
2026-05-05 14:12 43.34552 20.19393 34992 ft 480 kts 139°
2026-05-05 14:12 43.29621 20.25585 34996 ft 480 kts 139°
2026-05-05 14:13 43.24690 20.31769 34997 ft 480 kts 139°
2026-05-05 14:13 43.19748 20.37951 34998 ft 481 kts 139°
2026-05-05 14:14 43.14799 20.44114 34992 ft 481 kts 139°
2026-05-05 14:14 43.09851 20.50268 34989 ft 481 kts 139°
2026-05-05 14:15 43.04890 20.56430 34997 ft 482 kts 139°
2026-05-05 14:15 42.99918 20.62585 34994 ft 482 kts 138°
2026-05-05 14:16 42.95032 20.68862 34994 ft 483 kts 136°
2026-05-05 14:16 42.90218 20.75263 34997 ft 483 kts 136°
2026-05-05 14:17 42.85389 20.81643 35008 ft 484 kts 137°
2026-05-05 14:17 42.80482 20.88013 35019 ft 484 kts 137°
2026-05-05 14:18 42.75594 20.94324 35034 ft 485 kts 137°
2026-05-05 14:18 42.70708 21.00648 35042 ft 485 kts 137°
2026-05-05 14:19 42.65819 21.06966 35046 ft 485 kts 137°
2026-05-05 14:19 42.60917 21.13282 35047 ft 486 kts 137°
2026-05-05 14:20 42.56008 21.19585 35042 ft 486 kts 137°
2026-05-05 14:20 42.51100 21.25893 35038 ft 486 kts 137°
2026-05-05 14:21 42.46184 21.32189 35027 ft 486 kts 137°
2026-05-05 14:21 42.41262 21.38479 35024 ft 487 kts 137°
2026-05-05 14:22 42.36332 21.44755 35014 ft 487 kts 137°
2026-05-05 14:22 42.31398 21.51028 35013 ft 487 kts 137°
2026-05-05 14:23 42.27295 21.56235 35006 ft 487 kts 137°
2026-05-05 14:23 42.22318 21.62522 35009 ft 487 kts 137°
2026-05-05 14:24 42.17489 21.68842 34999 ft 487 kts 135°
2026-05-05 14:24 42.12701 21.75308 35005 ft 488 kts 135°
2026-05-05 14:25 42.07890 21.81756 35007 ft 488 kts 135°
2026-05-05 14:25 42.03042 21.88152 35006 ft 488 kts 135°
2026-05-05 14:26 41.98185 21.94535 35005 ft 488 kts 135°
2026-05-05 14:26 41.93294 22.00957 35006 ft 488 kts 135°
2026-05-05 14:27 41.88432 22.07338 35007 ft 489 kts 135°
2026-05-05 14:27 41.83572 22.13704 35011 ft 489 kts 135°
2026-05-05 14:28 41.78700 22.20064 35012 ft 489 kts 135°
2026-05-05 14:28 41.73820 22.26415 35010 ft 489 kts 135°
2026-05-05 14:29 41.68937 22.32760 35006 ft 489 kts 135°
2026-05-05 14:29 41.64051 22.39098 35009 ft 489 kts 135°
2026-05-05 14:30 41.59168 22.45438 35008 ft 489 kts 135°
2026-05-05 14:30 41.54280 22.51765 35007 ft 490 kts 135°
2026-05-05 14:31 41.49379 22.58084 35005 ft 490 kts 135°
2026-05-05 14:31 41.44469 22.64391 35008 ft 490 kts 136°
2026-05-05 14:32 41.39548 22.70693 35002 ft 491 kts 135°
2026-05-05 14:32 41.34625 22.76994 35002 ft 491 kts 135°
2026-05-05 14:33 41.29433 22.82884 34999 ft 491 kts 141°
2026-05-05 14:33 41.24088 22.88542 34996 ft 492 kts 141°
2026-05-05 14:34 41.18729 22.94191 35002 ft 492 kts 142°
2026-05-05 14:34 41.13368 22.99844 35001 ft 493 kts 141°
2026-05-05 14:35 41.08001 23.05500 34999 ft 493 kts 141°
2026-05-05 14:35 41.02631 23.11149 34994 ft 493 kts 142°
2026-05-05 14:36 40.97255 23.16792 34993 ft 493 kts 141°
2026-05-05 14:36 40.91868 23.22423 34992 ft 494 kts 141°
2026-05-05 14:37 40.86473 23.28053 34994 ft 494 kts 141°
2026-05-05 14:37 40.81078 23.33671 34989 ft 494 kts 141°
2026-05-05 14:38 40.75676 23.39294 34996 ft 495 kts 141°
2026-05-05 14:38 40.70266 23.44909 34996 ft 495 kts 141°
2026-05-05 14:39 40.64852 23.50512 35005 ft 495 kts 142°
2026-05-05 14:39 40.59424 23.56112 35012 ft 496 kts 142°
2026-05-05 14:40 40.53986 23.61705 35014 ft 496 kts 142°
2026-05-05 14:40 40.48551 23.67299 35025 ft 497 kts 141°
2026-05-05 14:41 40.43103 23.72895 35025 ft 497 kts 142°
2026-05-05 14:41 40.37641 23.78490 35031 ft 498 kts 142°
2026-05-05 14:42 40.32173 23.84077 35035 ft 499 kts 142°
2026-05-05 14:42 40.26693 23.89664 35046 ft 499 kts 142°
2026-05-05 14:43 40.21207 23.95248 35042 ft 500 kts 142°
2026-05-05 14:43 40.15716 24.00821 35043 ft 500 kts 142°
2026-05-05 14:44 40.10226 24.06391 35052 ft 500 kts 142°
2026-05-05 14:44 40.04730 24.11958 35047 ft 500 kts 142°
2026-05-05 14:45 39.99226 24.17519 35054 ft 500 kts 142°
2026-05-05 14:45 39.93716 24.23056 35053 ft 500 kts 142°
2026-05-05 14:46 39.88211 24.28604 35049 ft 500 kts 141°
2026-05-05 14:46 39.82742 24.34199 35043 ft 500 kts 141°
2026-05-05 14:47 39.77277 24.39814 35047 ft 500 kts 141°
2026-05-05 14:47 39.71805 24.45403 35049 ft 501 kts 141°
2026-05-05 14:48 39.66311 24.50974 35040 ft 501 kts 142°
2026-05-05 14:48 39.60817 24.56534 35051 ft 501 kts 141°
2026-05-05 14:49 39.55324 24.62097 35042 ft 501 kts 141°
2026-05-05 14:49 39.49829 24.67651 35044 ft 501 kts 142°
2026-05-05 14:50 39.44332 24.73199 35045 ft 501 kts 142°
2026-05-05 14:50 39.38831 24.78728 35043 ft 501 kts 142°
2026-05-05 14:51 39.33316 24.84245 35045 ft 501 kts 142°
2026-05-05 14:51 39.27803 24.89771 35049 ft 502 kts 142°
2026-05-05 14:52 39.22286 24.95295 35048 ft 502 kts 142°
2026-05-05 14:52 39.16762 25.00807 35052 ft 502 kts 142°
2026-05-05 14:53 39.11234 25.06307 35051 ft 502 kts 142°
2026-05-05 14:53 39.05697 25.11798 35055 ft 502 kts 142°
2026-05-05 14:54 39.00163 25.17286 35053 ft 502 kts 142°
2026-05-05 14:54 38.94626 25.22768 35055 ft 503 kts 142°
2026-05-05 14:55 38.89086 25.28246 35058 ft 502 kts 142°
2026-05-05 14:55 38.83544 25.33717 35054 ft 502 kts 142°
2026-05-05 14:56 38.78000 25.39170 35049 ft 503 kts 142°
2026-05-05 14:56 38.72445 25.44611 35050 ft 503 kts 142°
2026-05-05 14:57 38.66887 25.50055 35051 ft 503 kts 142°
2026-05-05 14:57 38.61293 25.55531 35056 ft 503 kts 142°
2026-05-05 14:58 38.55733 25.60958 35059 ft 503 kts 142°
2026-05-05 14:58 38.50168 25.66372 35067 ft 503 kts 142°
2026-05-05 14:59 38.44637 25.71742 35065 ft 503 kts 142°
2026-05-05 14:59 38.39033 25.77173 35068 ft 503 kts 143°
2026-05-05 15:00 38.34408 25.81650 35065 ft 502 kts 143°
2026-05-05 15:00 38.28844 25.87039 35070 ft 502 kts 143°
2026-05-05 15:01 38.23049 25.91953 35063 ft 500 kts 155°
2026-05-05 15:01 38.16815 25.95889 35058 ft 500 kts 155°
2026-05-05 15:02 38.10580 25.99839 35062 ft 501 kts 155°
2026-05-05 15:02 38.04347 26.03803 35056 ft 501 kts 155°
2026-05-05 15:03 37.98116 26.07775 34998 ft 502 kts 155°
2026-05-05 15:03 37.94994 26.09752 34746 ft 502 kts 155°
2026-05-05 15:03 37.91868 26.11723 34505 ft 502 kts 155°
2026-05-05 15:04 37.88740 26.13690 34272 ft 503 kts 155°
2026-05-05 15:04 37.85602 26.15659 33950 ft 503 kts 155°
2026-05-05 15:04 37.82433 26.17644 32681 ft 516 kts 155°
2026-05-05 15:04 37.79196 26.19673 31699 ft 521 kts 155°
2026-05-05 15:05 37.72660 26.23785 29805 ft 526 kts 154°
2026-05-05 15:05 37.69391 26.25841 28824 ft 526 kts 154°
2026-05-05 15:05 37.66115 26.27898 27955 ft 524 kts 154°
2026-05-05 15:06 37.62855 26.29943 27166 ft 521 kts 154°
2026-05-05 15:06 37.59617 26.31970 26472 ft 517 kts 154°
2026-05-05 15:06 37.56411 26.33972 25854 ft 512 kts 154°
2026-05-05 15:06 37.53235 26.35953 25261 ft 507 kts 154°
2026-05-05 15:07 37.50090 26.37913 24661 ft 502 kts 154°
2026-05-05 15:07 37.46976 26.39851 24065 ft 497 kts 154°
2026-05-05 15:07 37.43895 26.41767 23447 ft 492 kts 154°
2026-05-05 15:07 37.40838 26.43667 22786 ft 487 kts 154°
2026-05-05 15:08 37.37824 26.45539 22063 ft 478 kts 154°
2026-05-05 15:08 37.34866 26.47375 21083 ft 471 kts 154°
2026-05-05 15:08 37.31959 26.49176 20304 ft 460 kts 154°
2026-05-05 15:08 37.29141 26.50922 19818 ft 443 kts 154°
2026-05-05 15:09 37.26428 26.52605 19327 ft 428 kts 154°
2026-05-05 15:09 37.23802 26.54234 18850 ft 414 kts 154°
2026-05-05 15:09 37.21257 26.55811 18385 ft 402 kts 154°
2026-05-05 15:09 37.18774 26.57343 17902 ft 397 kts 154°
2026-05-05 15:10 37.16299 26.58868 17372 ft 395 kts 154°
2026-05-05 15:10 37.13844 26.60378 16916 ft 389 kts 154°
2026-05-05 15:10 37.11435 26.61856 16428 ft 383 kts 154°
2026-05-05 15:10 37.09053 26.63318 15872 ft 379 kts 154°
2026-05-05 15:11 37.06698 26.64767 15338 ft 375 kts 154°
2026-05-05 15:11 37.04365 26.66204 14809 ft 372 kts 154°
2026-05-05 15:11 37.02055 26.67627 14288 ft 369 kts 153°
2026-05-05 15:11 36.99761 26.69038 13779 ft 366 kts 153°
2026-05-05 15:12 36.97488 26.70434 13212 ft 362 kts 153°
2026-05-05 15:12 36.95239 26.71814 12670 ft 359 kts 153°
2026-05-05 15:12 36.93007 26.73181 12133 ft 355 kts 153°
2026-05-05 15:12 36.90798 26.74533 11602 ft 352 kts 153°
2026-05-05 15:13 36.88607 26.75873 11080 ft 349 kts 153°
2026-05-05 15:13 36.86438 26.77200 10565 ft 346 kts 153°
2026-05-05 15:13 36.84320 26.78496 10409 ft 331 kts 153°
2026-05-05 15:13 36.82301 26.79734 10286 ft 316 kts 153°
2026-05-05 15:14 36.80371 26.80914 10171 ft 302 kts 153°
2026-05-05 15:14 36.78527 26.82039 10021 ft 290 kts 153°
2026-05-05 15:14 36.76726 26.83138 9732 ft 286 kts 153°
2026-05-05 15:14 36.74942 26.84226 9367 ft 285 kts 153°
2026-05-05 15:15 36.73162 26.85309 8994 ft 284 kts 153°
2026-05-05 15:15 36.71407 26.86424 8610 ft 282 kts 146°
2026-05-05 15:15 36.69863 26.87906 8225 ft 279 kts 132°
2026-05-05 15:15 36.68635 26.89755 7847 ft 275 kts 118°
2026-05-05 15:16 36.67741 26.91840 7478 ft 272 kts 111°
2026-05-05 15:16 36.66905 26.93952 7147 ft 271 kts 111°
2026-05-05 15:16 36.66085 26.95993 7067 ft 256 kts 111°
2026-05-05 15:16 36.65303 26.97930 6932 ft 245 kts 111°
2026-05-05 15:17 36.64556 26.99792 6700 ft 238 kts 110°
2026-05-05 15:17 36.63822 27.01628 6346 ft 236 kts 110°
2026-05-05 15:17 36.63092 27.03448 5980 ft 234 kts 110°
2026-05-05 15:17 36.62378 27.05213 5909 ft 221 kts 110°
2026-05-05 15:18 36.61699 27.06887 5823 ft 214 kts 110°
2026-05-05 15:18 36.61037 27.08537 5718 ft 212 kts 109°
2026-05-05 15:18 36.60379 27.10180 5627 ft 212 kts 109°
2026-05-05 15:18 36.59833 27.11854 5529 ft 205 kts 96°
2026-05-05 15:19 36.59696 27.13577 5429 ft 197 kts 79°
2026-05-05 15:19 36.59938 27.15217 5105 ft 188 kts 63°
2026-05-05 15:19 36.60407 27.16703 4852 ft 182 kts 61°
2026-05-05 15:19 36.60854 27.18154 4585 ft 178 kts 61°
2026-05-05 15:20 36.61355 27.19542 4333 ft 171 kts 48°
2026-05-05 15:20 36.62197 27.20523 4097 ft 160 kts 25°
2026-05-05 15:20 36.63228 27.20947 3880 ft 155 kts
2026-05-05 15:20 36.64291 27.20815 3667 ft 155 kts 343°
2026-05-05 15:21 36.65245 27.20182 3448 ft 157 kts 330°
2026-05-05 15:21 36.66152 27.19458 3246 ft 157 kts 330°
2026-05-05 15:21 36.67074 27.18728 3049 ft 157 kts 330°
2026-05-05 15:21 36.68008 27.17990 2815 ft 157 kts 329°
2026-05-05 15:22 36.68932 27.17272 2588 ft 156 kts 329°
2026-05-05 15:22 36.69849 27.16552 2376 ft 155 kts 329°
2026-05-05 15:22 36.70749 27.15848 2188 ft 155 kts 329°
2026-05-05 15:22 36.71665 27.15144 1991 ft 155 kts 329°
2026-05-05 15:23 36.72564 27.14469 1842 ft 144 kts 328°
2026-05-05 15:23 36.73390 27.13836 1666 ft 139 kts 327°
2026-05-05 15:23 36.74216 27.13192 1456 ft 137 kts 327°
2026-05-05 15:23 36.75023 27.12561 1228 ft 137 kts 327°
2026-05-05 15:24 36.75831 27.11934 1034 ft 137 kts 326°
2026-05-05 15:24 36.76637 27.11303 859 ft 137 kts 327°
2026-05-05 15:24 36.77449 27.10669 694 ft 137 kts 326°
2026-05-05 15:24 36.78260 27.10051 486 ft 136 kts 326°
2026-05-05 15:25 36.79052 27.09435 401 ft 124 kts 327°
2026-05-05 15:25 36.79603 27.09000 414 ft 68 kts 328°
2026-05-05 15:25 36.79960 27.08717 412 ft 50 kts 329°
2026-05-05 15:25 36.80179 27.08547 415 ft 30 kts 327°
2026-05-05 15:26 36.80324 27.08447 414 ft 15 kts 356°
2026-05-05 15:26 36.80352 27.08503 421 ft 6 kts 102°
2026-05-05 15:26 36.80342 27.08562 418 ft 10 kts 102°
2026-05-05 15:26 36.80325 27.08658 421 ft 11 kts 107°
2026-05-05 15:27 36.80274 27.08718 413 ft 10 kts 146°
2026-05-05 15:27 36.80209 27.08769 418 ft 15 kts 148°
2026-05-05 15:27 36.80106 27.08847 416 ft 17 kts 149°
2026-05-05 15:27 36.80010 27.08922 413 ft 15 kts 148°
2026-05-05 15:28 36.79943 27.08977 416 ft 6 kts 135°
2026-05-05 15:28 36.79952 27.09019 413 ft 5 kts 57°
2026-05-05 15:28 36.79967 27.09048 413 ft 3 kts 57°
2026-05-05 15:28 36.79973 27.09060 408 ft 1 kts 57°
2026-05-05 15:29 36.79973 27.09061 408 ft 0 kts 57°